GFSSGP_925_temp_138.txt.gz
Temp
19 19 20 19 19 17 20 23 25 24 23 21 22 21 19 17 20 21 19 19 18 19 19 18 19 19 19 19 19 19 19 19 19 19 19 19 19 19 19 19 19 19 19 19 19 19 19 19 19
19 19 19 16 18 19 20 23 24 23 21 20 20 20 19 18 18 18 18 18 19 19 19 18 18 18 19 19 19 19 19 19 19 19 19 19 19 19 19 19 19 19 19 19 19 19 19 19 19
19 19 17 17 17 20 21 23 21 22 21 22 20 18 19 18 19 18 18 19 20 19 18 18 18 18 18 18 19 19 19 18 18 19 19 19 19 19 19 19 19 19 19 19 19 19 19 19 19
18 18 16 18 20 22 23 21 21 21 22 20 19 17 18 18 19 18 18 19 20 19 18 18 18 18 18 18 18 18 18 18 18 18 18 18 19 19 18 18 18 19 19 19 19 19 19 19 19
18 14 17 18 21 22 21 22 21 22 21 20 20 17 17 17 17 18 18 19 19 17 17 17 17 18 18 18 19 19 19 19 19 19 18 18 18 18 19 18 18 18 19 19 19 19 19 19 19
15 14 16 18 22 22 23 22 21 20 20 19 18 17 16 17 18 17 18 18 17 17 17 17 17 17 17 17 18 18 18 18 19 18 18 18 18 18 18 18 18 18 18 18 18 18 18 18 18
15 15 16 18 20 22 22 22 20 20 20 19 18 15 15 16 17 17 18 17 17 16 17 17 17 17 17 16 16 16 16 17 17 17 17 17 18 18 18 18 17 17 18 18 18 18 18 18 18
15 15 19 18 19 22 22 22 21 20 19 19 18 15 15 16 17 17 17 16 16 16 16 16 16 16 16 16 16 16 16 16 16 16 16 16 17 17 17 17 17 18 18 18 18 18 18 18 18
17 15 17 19 19 22 21 22 20 18 18 16 14 16 17 17 17 16 15 15 15 15 16 16 16 16 16 16 16 16 16 15 15 15 16 16 16 16 16 17 17 18 18 18 18 17 18 18 18
16 15 19 19 19 20 20 20 19 19 17 15 14 14 15 16 16 15 15 14 15 15 15 15 15 15 15 15 15 15 15 15 15 15 15 15 15 15 15 16 16 16 17 17 17 17 17 18 17
17 17 18 19 17 19 19 19 19 18 20 16 15 14 14 15 16 15 14 15 15 15 15 15 15 15 15 15 15 14 14 14 14 14 14 14 14 14 15 15 15 15 16 16 16 17 17 17 17
17 17 18 17 16 20 20 19 18 19 20 17 15 15 14 14 14 14 14 14 15 15 15 15 14 14 14 14 14 13 13 13 13 13 14 13 13 13 14 14 14 14 15 15 15 15 16 16 16
17 17 17 16 17 17 17 17 17 16 15 14 15 15 14 14 14 15 15 15 15 15 14 14 14 14 14 14 13 13 13 12 12 12 12 12 12 12 12 13 13 13 14 14 14 14 15 15 15
16 16 17 16 16 16 17 18 18 17 14 15 15 14 14 14 14 14 14 15 15 15 14 14 14 14 13 13 12 12 12 12 12 12 12 11 11 12 12 12 13 13 13 13 13 13 14 14 14
15 16 15 15 17 17 17 19 17 16 15 15 15 15 14 14 14 15 15 15 15 14 14 13 13 13 13 13 12 12 12 12 12 11 11 11 11 11 11 11 12 12 12 13 13 13 13 14 14
15 14 15 16 17 17 18 18 17 15 15 14 15 15 14 14 15 15 16 15 14 14 13 13 13 13 13 12 12 11 11 11 11 11 11 11 11 11 11 11 11 11 12 13 12 12 13 13 13
13 11 14 16 16 17 18 18 16 15 15 15 14 15 14 14 14 15 15 15 14 14 14 13 13 12 12 12 12 11 11 11 11 11 11 11 11 11 11 11 11 11 12 12 12 12 11 12 13
12 12 14 14 16 17 17 17 15 15 15 15 14 13 14 13 13 15 15 15 14 14 13 13 13 12 12 12 11 11 11 10 10 10 10 10 11 11 10 11 11 11 11 11 12 11 11 11 11
14 14 14 15 16 17 16 16 15 15 15 14 13 12 13 13 15 15 15 15 14 14 13 13 12 12 12 11 11 10 10 10 10 10 10 10 10 10 10 11 10 10 11 10 11 11 11 10 11
15 13 13 15 16 17 16 16 16 15 14 14 14 13 12 13 14 14 14 14 14 14 13 13 12 12 12 11 10 10 10 9 9 10 10 10 10 10 10 10 10 10 10 10 10 10 10 9 9
16 14 13 14 15 17 16 16 17 16 15 15 14 15 13 13 12 12 13 13 13 13 13 13 12 12 11 11 10 10 10 9 9 9 10 10 10 10 9 9 10 9 9 9 9 9 9 8 8
16 16 15 14 13 12 16 13 16 17 16 15 14 13 14 13 12 12 12 12 13 13 13 13 12 12 11 11 10 10 10 10 10 10 10 10 9 9 9 9 9 9 9 8 8 8 8 8 8
15 15 14 15 13 13 15 11 16 16 18 18 15 13 13 15 12 11 12 14 13 13 13 13 12 11 11 10 10 10 10 10 10 10 9 9 9 9 9 9 9 8 8 8 8 7 7 7 7
14 14 13 11 11 11 15 13 15 16 18 17 14 14 13 12 12 12 13 13 13 13 13 12 12 11 11 10 10 10 10 10 10 9 9 9 9 9 8 8 9 8 8 8 7 7 7 7 6
14 12 7 10 9 11 12 14 15 16 16 16 13 13 13 12 11 10 11 11 12 13 12 12 11 11 11 10 10 10 10 9 9 10 10 9 9 9 9 8 8 8 8 7 7 6 6 6 6
14 12 9 12 10 11 12 13 15 15 14 13 13 13 13 13 12 11 12 12 12 13 12 12 11 11 11 10 10 10 9 9 9 9 9 9 9 9 9 9 8 8 8 7 7 6 6 6 5
15 12 13 11 10 10 10 14 14 14 14 14 14 14 14 13 12 11 12 13 13 13 13 13 12 12 11 11 10 10 10 9 10 10 9 9 9 9 9 9 8 8 7 7 7 6 6 6 5
15 14 13 9 13 15 10 14 11 13 13 13 14 14 14 14 13 11 12 13 13 13 13 13 13 12 12 11 11 10 10 10 10 10 10 9 10 9 9 8 8 8 8 7 7 6 6 5 5
13 13 13 11 10 12 13 13 11 12 12 12 13 13 13 14 13 11 12 13 13 14 13 13 13 12 12 12 12 11 10 10 10 10 10 10 9 9 9 8 8 8 7 7 6 6 6 5 5
13 14 13 12 15 11 11 13 14 12 12 12 13 14 14 13 11 10 11 12 13 13 13 13 13 12 13 13 12 11 11 10 10 10 10 10 10 9 9 9 8 8 8 7 6 6 6 5 5

GFSSGP_925_temp_141.txt.gz
Temp
17 18 19 19 19 16 19 21 23 22 22 20 20 22 20 17 21 21 17 18 18 18 19 19 19 19 19 19 19 19 19 19 19 19 19 19 19 19 19 19 19 19 19 18 19 19 19 19 18
18 18 19 14 17 18 19 21 23 22 20 18 19 20 18 17 17 16 17 17 18 18 18 18 18 18 18 18 19 19 19 19 19 19 19 19 19 19 19 19 19 19 19 19 19 19 19 19 19
18 18 16 16 15 18 20 22 20 20 19 21 19 18 18 17 17 17 17 17 17 18 18 18 18 18 18 18 18 18 18 18 18 18 18 18 18 18 19 19 19 19 19 19 19 19 19 19 19
17 17 15 17 18 20 21 21 20 19 20 19 18 17 17 17 18 18 17 17 18 18 18 17 17 18 18 18 18 18 18 18 18 18 18 18 18 18 18 18 18 18 18 19 19 19 18 19 18
17 14 16 17 19 20 21 22 19 21 20 19 19 16 16 16 17 18 17 18 19 18 17 17 17 18 18 18 18 18 18 18 18 18 18 18 18 18 18 18 18 18 18 18 18 18 18 18 18
14 13 15 16 19 22 21 21 20 20 19 17 17 16 16 16 17 17 17 17 17 17 17 17 17 17 17 17 17 17 18 18 18 18 17 18 18 18 18 18 18 18 17 17 17 17 18 18 18
15 14 16 17 19 21 21 20 20 19 19 18 16 15 14 15 16 16 17 17 17 17 17 17 17 17 16 16 16 16 16 16 16 17 17 17 17 17 17 17 17 17 18 18 18 18 18 18 18
14 14 16 16 18 21 20 20 19 19 18 17 16 15 14 15 15 16 16 16 16 16 16 16 16 16 16 16 16 16 16 16 16 16 16 16 16 16 17 17 17 17 18 18 18 17 18 18 17
15 14 15 17 18 21 19 21 19 17 18 15 14 15 16 16 15 15 15 15 16 16 16 16 16 16 16 15 15 15 15 15 15 15 15 15 15 15 16 16 16 17 17 17 17 17 17 17 17
15 14 17 18 18 19 19 20 19 19 17 15 14 13 14 14 15 14 14 14 15 15 15 15 15 15 15 15 15 14 15 14 14 14 14 14 14 14 14 15 15 16 16 16 17 17 17 17 17
15 16 18 18 17 18 18 18 18 18 20 16 14 13 13 13 14 14 14 15 15 14 15 15 15 15 15 14 14 14 14 14 13 14 14 14 13 14 14 14 14 15 15 15 16 16 16 16 16
17 17 17 17 17 18 19 18 18 19 19 17 14 14 14 13 13 13 14 14 15 14 14 14 14 15 14 14 14 13 13 13 13 13 13 13 13 13 13 13 13 14 14 14 14 15 15 15 15
17 17 17 16 16 16 17 17 17 16 13 13 14 14 12 12 13 14 15 14 14 14 14 14 14 14 14 13 13 13 12 12 12 12 12 12 12 12 12 13 13 13 13 13 13 14 14 14 14
16 16 16 16 16 16 17 18 19 15 13 13 14 13 12 13 13 13 14 14 14 14 14 14 14 14 13 13 13 12 12 12 12 12 12 11 12 12 12 12 12 12 13 13 13 13 13 13 13
15 17 16 15 16 17 16 19 17 15 14 13 14 13 13 13 14 14 15 15 15 14 14 14 14 13 13 13 12 12 12 11 12 12 11 11 11 11 11 11 12 12 12 13 13 13 12 13 13
15 14 16 16 16 17 19 18 17 14 14 13 14 13 13 13 14 15 15 15 15 14 14 13 13 13 13 12 12 11 11 11 11 11 11 11 11 11 11 11 12 12 12 13 13 13 13 13 13
11 11 14 16 15 17 18 17 16 14 14 14 13 13 13 13 13 14 15 15 15 14 14 14 13 13 13 12 12 11 11 11 11 10 10 11 11 11 11 11 11 11 12 12 12 12 12 12 12
11 11 13 15 16 16 17 17 15 14 15 14 13 13 13 13 13 15 15 15 14 14 14 13 13 13 12 12 11 11 10 10 10 10 10 10 10 10 10 11 11 11 11 12 12 11 11 11 11
13 14 14 14 15 17 17 17 15 14 14 14 13 12 12 13 14 15 14 14 14 13 13 13 13 13 12 12 11 10 10 10 10 10 10 10 10 10 10 10 10 11 11 11 11 11 11 11 11
14 13 13 14 15 16 15 17 17 14 14 14 13 12 12 13 13 13 14 14 13 14 13 13 13 12 12 12 11 10 10 10 9 9 10 10 10 10 10 10 10 10 10 10 10 10 10 9 9
14 13 12 13 15 15 16 16 17 16 15 15 13 13 13 12 12 12 12 13 13 13 14 13 13 12 12 11 11 10 9 9 9 9 9 9 9 10 10 10 10 10 10 10 10 9 9 8 9
15 14 14 13 13 12 14 13 15 15 15 14 14 13 13 12 12 12 12 12 13 14 14 13 12 12 12 11 10 10 10 9 10 10 10 10 9 10 10 10 9 10 10 9 9 8 8 8 8
16 14 13 14 12 12 15 11 15 15 16 15 14 13 12 12 12 11 11 13 14 14 14 13 12 12 11 11 10 10 10 9 9 10 10 10 9 9 9 9 9 9 9 9 9 8 8 8 8
12 13 12 10 11 11 14 13 15 15 17 16 14 13 12 13 13 12 12 12 13 13 13 12 12 12 11 11 10 10 10 9 9 10 10 9 9 9 9 9 9 9 9 8 8 8 7 7 7
13 12 7 10 9 11 11 13 14 16 15 15 13 11 11 11 11 11 12 11 12 13 13 12 12 12 11 11 10 10 10 10 10 10 10 9 9 9 10 9 9 8 8 8 8 7 7 6 6
13 12 9 12 10 10 11 13 15 14 13 12 12 12 12 11 10 10 11 12 12 13 13 12 12 12 11 11 11 10 10 10 10 10 9 9 9 10 9 9 8 8 8 7 7 7 6 6 6
14 12 12 10 9 10 10 13 14 14 14 13 13 13 13 13 12 12 12 12 12 12 13 12 12 12 12 11 11 11 10 10 10 10 10 9 9 9 9 9 8 8 8 7 7 7 6 6 6
14 12 12 9 12 15 10 12 11 12 12 13 13 13 13 13 13 11 11 12 12 13 13 12 12 12 12 11 11 11 10 10 10 9 9 9 9 9 9 9 8 8 8 7 7 7 7 6 6
13 13 11 11 10 12 13 13 11 11 11 11 12 12 12 13 11 10 10 11 12 12 12 12 11 11 12 12 11 11 11 10 10 10 10 10 10 9 9 9 9 8 8 8 7 7 6 6 6
13 14 12 12 14 10 11 13 12 11 11 11 11 12 12 10 9 9 9 10 11 11 12 12 12 12 12 12 11 11 11 11 10 10 10 10 10 10 10 9 9 8 8 8 7 7 7 6 6

GFSSGP_925_temp_144.txt.gz
Temp
16 18 19 19 19 16 18 20 21 21 21 20 19 20 20 16 20 20 16 18 18 18 19 19 19 19 19 19 19 19 19 19 19 19 19 19 19 19 19 19 19 19 18 18 18 19 19 19 19
17 18 19 13 17 17 18 20 22 21 19 17 18 19 18 17 17 16 17 17 18 18 18 18 18 18 18 18 18 18 18 18 18 18 18 18 18 18 18 19 19 19 19 19 19 18 19 19 19
17 17 16 16 14 18 19 20 20 18 18 20 18 17 18 16 16 16 16 17 17 17 17 17 18 18 18 18 18 18 18 18 18 18 18 18 18 18 18 18 18 18 18 18 18 18 18 18 18
16 16 14 16 17 18 20 22 19 18 19 19 18 16 17 16 17 17 16 16 17 17 17 17 17 18 18 18 18 18 18 18 18 18 18 18 18 18 18 18 18 18 18 18 18 18 18 18 18
16 13 15 16 18 19 18 20 18 19 19 18 18 16 16 15 16 16 16 17 18 17 17 17 17 17 17 18 18 18 18 18 17 18 18 18 18 18 18 17 17 17 17 17 18 18 18 18 18
14 13 14 15 17 20 20 19 19 19 18 17 17 16 16 15 16 16 16 17 17 17 17 17 17 17 17 17 17 17 17 17 17 17 17 17 17 17 17 17 17 17 18 18 18 18 18 18 18
14 13 15 15 17 20 20 18 19 18 17 18 16 15 14 15 15 15 16 16 17 17 17 17 17 17 16 16 16 16 16 16 16 16 16 16 16 16 17 17 17 17 18 18 18 18 18 18 18
13 13 15 15 17 20 18 19 18 19 17 16 16 14 14 14 14 15 15 16 16 16 16 16 16 16 16 16 16 16 15 15 15 15 15 15 15 16 16 16 17 17 17 17 18 17 17 18 17
13 14 14 17 17 20 17 19 18 17 16 15 14 15 15 15 14 14 15 15 15 15 15 15 16 16 16 15 15 15 15 15 15 15 15 15 15 15 15 15 15 16 16 17 17 17 17 17 17
14 12 15 17 17 18 18 19 17 18 17 15 14 13 13 13 13 14 14 14 14 15 15 15 15 15 15 15 15 14 14 14 14 14 14 14 14 14 14 14 15 15 15 16 16 16 16 16 16
14 14 17 18 17 18 17 17 18 17 19 16 15 12 12 12 13 14 14 14 14 14 14 14 15 14 14 14 14 14 13 13 13 13 13 13 13 13 13 14 14 14 14 15 15 15 15 15 15
16 16 17 17 17 18 18 17 17 18 17 14 13 13 13 12 12 13 13 14 14 14 14 14 14 14 14 14 14 13 13 13 13 13 13 13 13 13 13 13 13 13 13 13 14 14 14 14 14
16 16 16 15 16 16 17 17 17 15 12 13 13 14 13 12 13 14 14 14 14 14 14 14 14 14 14 14 13 13 13 13 12 12 12 12 12 12 12 12 12 13 13 13 13 13 13 13 13
15 16 16 15 16 16 17 17 19 14 12 13 13 13 12 12 13 13 13 13 14 14 14 14 14 14 14 14 13 12 12 12 12 12 11 11 11 12 12 12 12 12 12 12 12 12 12 13 13
14 16 16 14 15 18 17 19 17 13 12 13 13 12 12 12 13 14 14 14 14 14 14 14 14 13 13 13 13 12 12 11 11 11 11 11 11 11 11 11 12 12 12 12 12 12 12 13 13
15 14 15 16 15 17 18 18 16 12 13 12 13 12 13 12 13 14 14 14 14 14 14 14 13 13 13 13 12 12 11 11 11 11 10 10 10 11 11 11 11 11 11 12 12 12 12 12 11
11 11 14 16 15 17 18 16 15 13 13 12 12 13 13 12 13 14 14 14 15 14 14 14 13 13 13 13 12 12 11 11 10 10 10 10 10 10 11 11 11 11 11 12 12 11 11 11 10
11 11 13 15 16 16 16 16 14 14 14 13 12 12 12 12 12 14 14 14 14 14 14 13 13 13 13 12 12 11 11 10 10 10 10 10 10 10 10 10 11 11 12 12 12 11 11 10 10
12 13 13 14 14 17 16 16 15 14 14 13 12 12 12 12 13 14 14 14 14 13 13 13 13 13 12 12 11 11 10 10 10 10 10 10 10 10 10 11 11 11 11 11 11 12 11 11 10
13 13 12 14 14 16 16 17 16 14 14 13 13 12 12 13 13 13 14 13 13 14 13 13 13 12 12 12 11 11 10 10 10 10 10 10 10 10 10 10 10 10 10 10 10 10 10 9 9
13 13 12 13 15 14 16 16 16 15 15 14 13 13 13 12 12 12 12 13 13 13 13 13 13 12 12 12 11 10 10 10 10 10 10 10 10 9 10 10 10 10 10 10 10 10 10 9 9
14 14 13 13 13 12 13 13 15 15 14 14 14 13 12 12 12 11 12 12 13 14 13 13 12 12 12 11 11 10 10 9 10 10 10 9 9 9 9 10 10 9 9 9 9 8 8 8 8
14 13 13 13 12 12 14 11 15 14 16 14 14 13 12 12 11 11 11 13 13 13 13 13 12 12 12 11 11 10 10 10 10 9 10 9 9 9 9 9 9 9 9 8 8 8 7 7 7
11 12 11 10 11 11 13 13 15 13 15 16 15 14 12 12 13 12 12 12 12 13 13 12 12 12 12 11 11 10 10 10 9 10 9 9 9 9 9 9 9 8 8 8 8 7 7 7 7
13 11 7 10 9 10 10 12 14 15 14 14 14 11 11 10 10 11 10 10 11 12 12 12 12 12 12 11 11 11 10 10 9 10 9 9 9 9 9 9 9 9 8 8 8 8 7 7 7
13 13 9 11 10 10 11 12 15 13 12 11 11 10 10 11 10 11 11 11 11 11 12 12 12 12 12 11 11 11 10 10 10 9 9 9 9 9 9 9 9 9 8 8 8 8 7 7 6
14 11 12 9 9 9 9 12 13 13 13 12 11 11 11 11 10 11 11 11 11 12 12 12 12 12 12 11 11 11 10 10 10 10 9 9 9 10 9 9 9 9 8 8 8 7 7 7 7
14 11 12 9 12 15 10 12 11 12 11 12 12 11 11 11 10 9 9 10 11 11 12 12 11 12 12 11 11 11 11 10 10 9 9 9 9 9 9 9 9 9 8 8 8 7 7 6 6
13 13 10 10 10 11 13 14 11 11 11 11 11 11 10 10 9 8 8 10 11 11 12 12 12 12 12 11 11 11 11 10 10 10 10 9 9 9 9 9 9 8 8 8 7 7 7 6 6
12 13 12 12 14 9 11 13 11 11 10 10 10 10 11 9 7 7 8 9 10 10 11 11 11 11 11 11 11 10 10 10 10 10 10 10 10 9 9 9 9 9 8 8 8 7 7 7 6

GFSSGP_925_temp_147.txt.gz
Temp
16 17 18 19 22 20 21 22 21 21 22 21 22 22 23 20 23 23 17 17 18 18 18 19 19 19 19 19 19 19 19 19 19 19 19 18 18 19 19 18 18 18 18 18 18 18 19 19 19
16 17 18 16 20 21 22 21 22 22 20 19 20 20 21 20 17 17 17 17 18 18 18 18 18 18 18 18 18 18 18 18 18 18 18 18 18 18 18 18 18 18 18 18 18 18 18 18 18
16 16 18 19 18 22 22 20 22 19 19 20 20 19 19 18 17 16 16 17 17 17 17 17 17 18 18 18 18 18 18 18 18 18 18 18 18 18 18 18 18 18 18 18 18 18 18 18 18
16 16 16 19 19 20 22 22 20 19 19 19 19 19 17 15 17 16 16 17 17 16 16 17 17 18 18 18 18 18 18 18 18 17 18 18 18 18 18 18 18 18 18 18 18 18 18 18 18
15 15 17 17 19 19 19 20 20 20 20 19 19 17 17 15 15 15 16 16 17 16 16 16 17 18 18 18 18 18 18 17 17 17 17 18 18 18 18 18 18 18 18 18 18 17 17 18 18
15 15 16 17 18 19 20 19 20 20 19 18 18 18 17 14 15 15 16 16 16 17 17 17 17 17 18 18 17 17 17 17 17 17 17 17 17 17 17 17 17 17 17 18 18 18 18 18 18
15 15 16 17 18 20 21 19 21 19 19 19 18 17 15 14 15 15 15 16 16 16 17 17 17 17 17 17 16 16 16 16 16 16 16 16 16 16 16 16 17 17 17 17 17 17 17 18 18
14 15 15 15 19 21 19 19 19 20 19 17 17 17 16 15 14 15 15 15 16 16 16 16 16 16 16 16 16 16 15 15 15 16 16 16 15 16 16 16 16 16 16 16 17 17 17 17 17
13 15 15 17 17 20 18 19 17 17 17 16 15 16 15 14 13 14 14 14 15 15 16 16 16 16 16 15 15 15 15 15 15 15 15 15 15 15 15 15 15 15 15 16 16 16 16 16 16
14 14 15 16 17 18 18 19 18 19 17 16 15 13 13 12 13 13 13 13 14 14 15 15 15 15 15 15 15 15 14 14 14 14 14 14 14 14 14 14 14 14 15 15 15 15 15 15 16
14 15 16 17 17 17 18 17 17 18 18 18 17 13 13 13 13 13 13 14 14 14 14 14 15 15 15 14 14 14 14 13 13 13 13 13 13 13 13 13 14 14 14 14 14 14 14 14 14
15 15 16 16 16 17 18 17 17 18 18 14 15 14 13 13 13 13 13 13 14 14 14 14 14 14 14 14 14 13 13 13 13 12 12 13 13 13 13 13 13 13 13 13 13 13 13 13 13
15 16 16 15 15 16 17 17 17 15 13 13 13 14 14 14 13 13 14 14 14 14 14 14 14 14 14 13 13 13 13 12 12 12 12 12 12 12 12 12 12 12 12 13 13 13 13 13 13
15 15 15 15 16 16 17 17 19 14 12 13 14 13 13 13 13 12 12 13 13 14 14 14 14 14 14 13 13 13 12 12 12 11 11 11 11 11 11 12 12 12 12 12 12 12 13 13 13
13 15 15 15 15 17 17 19 16 13 13 13 13 13 13 13 12 13 13 14 14 14 14 14 13 14 13 13 13 12 12 11 11 11 11 11 11 11 11 11 11 12 12 12 12 12 12 12 12
15 14 15 16 15 17 17 18 15 12 14 13 13 13 13 13 13 13 14 14 14 14 14 13 13 13 13 13 12 12 12 11 11 11 11 11 11 11 11 11 11 11 12 12 12 12 12 11 10
12 13 14 15 15 16 18 16 14 12 13 13 14 13 14 13 12 13 14 14 14 14 14 14 13 13 13 13 12 12 11 11 11 11 10 10 11 11 11 11 11 11 11 12 12 11 12 10 10
13 12 13 14 15 16 16 15 13 13 14 14 13 13 13 13 13 13 14 14 14 14 14 13 13 13 13 12 12 11 11 11 10 10 10 10 10 10 10 10 10 11 11 11 11 11 10 9 10
12 13 13 14 14 15 15 15 14 14 14 13 13 13 13 13 13 14 14 14 13 13 13 13 13 13 12 12 12 11 11 10 10 10 10 10 10 10 10 10 10 11 11 11 11 11 10 10 9
13 14 13 14 14 15 15 16 15 14 14 14 14 13 13 13 13 13 13 13 13 14 14 13 13 13 12 12 11 11 10 10 10 10 10 10 10 10 10 10 10 10 10 10 10 10 9 9 9
13 14 12 14 15 13 16 16 15 15 15 14 14 13 13 13 13 12 12 13 13 13 14 14 13 13 12 12 11 10 10 10 10 10 10 10 10 10 10 10 10 10 9 9 9 9 9 8 8
15 14 13 13 15 15 13 17 15 15 14 14 14 13 13 13 12 12 12 12 13 14 14 13 13 12 12 11 11 11 11 10 10 10 9 10 10 10 10 10 9 9 9 9 9 9 9 9 8
14 13 13 13 12 13 15 14 17 14 15 15 15 14 13 12 12 12 12 13 14 14 13 13 12 12 12 11 11 11 10 10 10 9 10 10 10 9 9 9 9 9 9 9 9 8 8 8 8
11 13 12 11 12 13 11 14 17 14 16 16 15 14 13 12 12 11 12 12 12 12 13 12 12 12 12 11 11 11 10 10 10 10 10 10 9 9 10 9 9 9 9 9 8 8 8 7 7
13 12 10 12 11 13 10 13 17 15 14 14 14 12 11 11 11 11 10 10 10 11 11 12 12 12 11 11 11 11 10 10 10 10 10 9 9 10 10 9 9 9 9 8 8 8 8 8 7
13 12 11 12 12 12 10 14 17 13 11 11 11 10 10 10 10 10 10 10 11 11 11 12 12 12 11 11 11 11 10 10 10 10 10 9 9 9 9 9 9 9 9 9 8 8 8 7 7
13 12 11 9 9 12 11 13 13 12 12 11 10 10 10 10 10 10 10 10 10 11 11 12 11 11 12 12 11 11 11 10 10 10 10 9 9 10 9 9 9 9 9 8 8 8 8 7 7
14 12 13 10 13 15 11 12 14 11 11 11 11 11 10 10 9 9 8 9 10 11 11 11 11 11 11 11 11 11 11 10 10 10 10 10 10 9 9 9 9 9 8 8 8 8 8 7 7
13 13 10 10 10 14 14 16 11 11 11 11 11 10 10 9 9 8 8 9 9 10 10 11 11 11 11 11 11 11 11 11 10 10 10 9 9 9 9 9 8 8 8 8 8 8 8 7 7
12 13 12 13 14 9 12 16 11 10 10 11 10 10 9 9 8 7 7 8 9 10 10 10 10 10 10 10 10 10 10 9 9 10 10 9 9 9 9 9 8 8 8 8 8 7 7 7 7

GFSSGP_925_temp_150.txt.gz
Temp
17 17 18 22 26 27 28 28 29 27 27 28 29 28 29 29 28 27 17 20 20 21 20 19 19 19 19 19 19 19 19 19 18 18 18 18 19 18 18 18 18 18 18 18 18 18 18 18 19
17 18 20 25 26 26 29 30 27 29 28 26 26 26 27 25 22 18 18 18 19 19 19 18 18 18 18 18 18 18 18 18 18 18 18 18 18 18 18 18 18 18 18 18 18 18 18 18 18
17 17 23 25 26 27 29 29 29 27 25 26 25 25 25 22 21 18 16 17 18 17 18 18 18 18 18 18 18 18 18 18 18 18 18 18 18 18 18 18 18 18 18 18 18 18 18 18 18
18 20 22 24 26 27 30 29 29 25 24 24 26 25 21 18 20 18 17 17 18 18 18 17 17 18 18 18 18 18 18 18 17 18 18 18 18 18 18 18 17 18 17 17 17 18 18 18 18
18 21 23 23 25 27 28 26 27 26 26 25 25 22 21 17 16 15 16 18 18 18 17 16 16 17 17 18 18 18 17 17 18 18 18 18 18 18 18 18 17 17 17 17 17 18 18 18 18
20 21 22 24 25 26 27 27 26 27 26 25 24 23 21 17 16 15 17 17 17 16 15 15 16 17 17 17 17 16 17 17 18 17 17 17 17 17 17 17 17 17 17 17 17 17 17 18 18
19 21 22 25 25 26 27 27 26 26 25 24 25 24 19 17 16 15 16 16 15 15 15 15 15 17 17 16 16 16 16 16 16 16 16 16 16 16 16 16 16 16 16 17 17 17 17 17 17
19 19 22 23 25 26 27 25 27 26 25 22 24 24 20 19 15 15 15 15 15 14 15 15 15 15 15 15 16 16 16 16 16 16 16 15 15 15 16 15 16 16 16 16 16 16 16 16 17
18 19 21 23 24 26 25 24 23 22 22 22 21 22 21 17 15 15 15 15 15 14 14 15 14 14 14 14 15 15 15 15 15 15 15 14 14 14 14 15 15 15 15 15 16 16 16 16 16
18 19 21 24 24 25 23 25 23 23 22 21 20 18 18 15 16 16 16 16 16 15 14 14 14 14 14 14 14 14 14 13 13 13 13 14 13 13 13 14 14 14 14 15 15 15 15 16 16
17 19 22 21 22 21 24 23 24 25 23 24 22 18 17 17 17 17 17 17 16 15 14 13 14 14 14 14 14 14 14 13 13 13 13 13 13 13 14 14 14 14 14 14 14 15 15 15 15
17 18 20 21 19 20 22 24 23 24 24 24 24 19 18 19 18 18 17 16 15 14 13 13 13 13 14 13 14 14 14 13 13 12 12 13 13 13 13 13 13 13 13 14 14 14 14 14 14
17 19 19 20 19 20 21 22 24 22 18 20 21 19 19 19 19 18 17 16 15 14 13 13 13 13 13 13 13 13 13 13 12 12 12 12 12 12 13 13 13 13 13 13 13 14 14 14 14
18 19 19 20 20 20 21 21 21 19 17 19 19 19 19 19 18 17 16 16 15 14 13 13 13 13 13 13 12 12 13 12 12 12 11 11 12 12 12 12 12 12 12 12 13 13 13 13 13
18 17 18 19 19 20 21 21 21 18 18 18 19 19 19 19 18 17 17 16 16 15 13 13 13 13 12 12 12 12 12 12 12 11 11 11 11 11 11 11 12 11 11 12 12 13 13 13 13
17 18 18 20 19 20 21 23 19 17 18 18 18 19 18 18 18 18 16 16 15 15 14 13 13 12 12 12 12 11 11 11 11 11 11 10 11 11 11 11 11 10 11 11 12 12 13 13 11
17 16 18 18 19 19 20 24 19 17 19 19 19 19 19 18 18 17 16 16 15 15 14 13 12 12 12 12 11 11 11 11 11 11 10 10 10 10 11 11 10 10 10 11 11 11 12 13 11
16 18 19 19 18 19 20 21 18 18 19 20 20 19 19 18 18 17 15 14 14 14 13 13 12 12 12 11 11 11 11 10 10 10 10 10 10 10 10 10 10 10 10 10 10 11 11 11 11
19 19 19 19 17 20 21 20 19 18 19 19 20 20 19 18 18 16 15 14 13 13 13 13 12 12 12 12 12 12 12 11 10 10 10 10 10 10 9 9 9 9 9 9 9 10 11 11 10
18 19 19 17 17 21 20 20 19 18 19 20 20 19 19 19 17 16 15 14 13 13 13 12 12 12 12 11 11 11 11 10 10 9 10 10 10 10 9 10 9 9 9 9 9 9 10 10 9
18 19 18 18 18 19 21 19 18 18 18 18 19 20 20 19 18 17 15 14 14 13 13 13 12 12 12 11 11 11 11 10 10 10 9 10 10 10 10 10 10 9 10 9 9 9 9 11 9
17 19 19 18 20 20 19 21 20 20 19 19 19 19 19 17 18 17 16 15 14 13 13 12 12 12 12 11 11 10 11 12 11 10 9 9 9 9 10 10 10 10 10 9 8 9 8 8 10
18 17 19 20 22 20 20 22 23 19 20 20 20 20 20 19 18 17 16 16 14 13 12 12 12 12 11 12 10 10 10 10 10 10 9 9 9 10 10 10 10 10 10 9 9 8 7 7 8
15 17 17 18 20 19 19 20 21 20 22 22 22 21 20 19 17 16 16 14 14 12 12 12 11 11 11 11 11 11 10 10 10 10 10 10 9 9 10 10 10 10 9 9 8 8 8 7 7
16 18 15 16 17 19 15 18 22 21 19 20 21 21 19 18 17 16 15 14 13 12 12 11 11 11 11 11 11 10 9 10 10 10 10 10 10 9 9 9 9 9 9 8 8 7 7 6 7
18 18 17 15 17 18 15 20 23 18 16 16 16 17 16 16 16 15 14 14 12 12 11 11 11 11 10 10 10 10 9 9 10 9 9 9 9 9 9 8 9 9 9 8 8 7 7 6 6
17 17 15 16 15 20 18 19 18 15 15 15 15 15 15 15 15 14 13 13 12 12 11 11 11 11 10 11 10 10 10 9 10 9 9 9 8 8 8 8 8 8 8 8 7 7 7 6 6
16 15 17 17 17 19 18 19 22 16 16 15 15 16 15 14 14 14 13 12 11 10 10 10 10 11 10 10 10 10 10 10 9 9 9 9 9 8 9 8 8 8 8 8 7 6 6 6 6
16 16 15 17 16 21 21 22 19 18 17 16 16 16 15 14 14 13 12 11 11 10 11 10 10 10 10 10 10 10 10 9 9 9 9 9 8 8 8 8 8 8 8 7 7 7 6 6 6
15 16 18 19 17 17 18 22 16 16 17 17 16 15 15 14 14 13 12 12 12 11 11 10 10 10 9 9 9 9 9 9 9 9 9 8 8 8 7 7 7 7 7 7 7 7 7 7 6

GFSSGP_925_temp_153.txt.gz
Temp
18 20 22 24 26 28 28 30 33 31 31 33 32 33 32 31 30 27 21 22 23 22 21 20 19 19 19 19 19 19 19 19 19 18 18 18 18 18 18 18 18 18 18 18 18 18 18 18 18
20 21 22 27 26 27 29 32 31 31 32 30 31 29 30 28 25 21 20 22 21 20 20 19 19 19 19 18 18 18 18 18 18 18 19 19 19 19 18 18 18 18 18 18 18 18 18 18 18
19 20 25 25 26 28 30 33 33 32 30 30 28 28 29 25 22 21 19 20 19 18 19 18 19 18 18 18 18 18 18 18 18 18 18 18 18 18 18 18 18 17 18 18 18 18 18 18 18
20 22 23 24 27 29 31 33 32 32 29 30 30 27 23 22 22 20 17 19 19 19 18 17 17 17 18 17 18 17 17 18 18 18 18 18 18 18 17 17 17 17 17 17 17 17 17 18 18
20 24 23 24 26 30 32 33 30 30 28 28 29 26 23 20 19 17 17 19 20 20 18 16 16 17 17 17 17 17 17 18 18 18 18 18 17 17 17 17 17 17 17 17 17 17 17 18 17
21 23 23 24 26 28 31 32 30 30 31 30 28 26 23 19 18 17 19 20 20 19 17 16 16 17 17 17 16 16 17 17 17 17 17 17 17 17 17 17 16 16 16 16 16 17 17 17 17
20 22 22 25 26 28 29 32 30 30 31 29 29 27 22 19 16 17 19 19 18 17 18 17 16 17 17 17 17 17 17 17 17 17 17 16 16 16 16 16 16 16 16 16 16 17 17 17 17
20 21 22 24 26 27 29 30 30 30 30 30 29 26 22 21 16 17 18 18 17 17 17 17 17 17 17 15 17 16 16 16 16 16 16 16 16 16 15 15 16 16 16 16 16 16 16 17 17
20 19 21 23 25 27 30 29 29 30 27 26 26 26 25 18 16 17 17 17 17 17 17 16 17 16 16 16 16 16 16 16 15 15 15 16 16 16 16 15 15 15 15 15 16 16 16 16 17
18 18 21 24 26 27 29 28 27 26 26 25 23 22 21 17 17 18 18 18 18 17 16 16 16 16 16 16 16 16 16 16 15 15 15 16 15 14 15 14 15 15 15 15 16 16 16 17 18
18 18 21 23 26 26 24 27 28 26 26 26 24 22 20 18 19 19 19 18 18 17 16 16 15 16 16 16 16 17 16 16 15 15 15 15 15 15 15 16 16 15 15 16 16 17 16 16 16
16 20 20 23 23 22 23 26 27 26 28 28 26 22 20 20 20 20 20 18 17 16 16 15 15 15 16 16 16 16 16 16 15 15 14 15 15 15 15 15 15 15 15 15 15 16 16 16 16
15 18 21 21 22 21 23 25 26 25 23 24 25 22 21 21 21 20 20 18 17 16 15 15 15 15 15 16 15 16 16 15 15 14 14 14 14 14 15 14 15 14 14 15 15 15 15 16 15
15 17 19 21 21 21 21 23 25 26 22 24 22 21 22 22 21 20 19 18 17 16 15 14 14 15 15 15 14 15 15 14 14 14 13 14 13 14 14 14 14 14 14 14 14 14 14 15 15
15 13 17 20 21 21 22 22 22 24 22 22 22 22 22 22 21 20 19 18 18 17 15 15 14 14 14 14 14 14 13 14 14 13 13 13 13 13 13 13 13 13 13 13 14 14 14 15 13
12 13 13 20 21 21 21 22 24 21 22 21 22 22 21 21 21 20 19 18 18 17 16 15 14 14 14 14 14 13 13 13 13 13 13 12 12 12 13 13 12 12 12 13 13 13 14 14 11
10 11 13 19 21 21 21 23 24 21 22 22 22 21 21 20 20 20 19 18 18 17 16 15 14 14 14 13 13 13 12 13 12 13 12 12 12 12 13 12 12 12 12 12 12 13 13 14 12
12 12 16 19 21 20 21 23 21 21 22 22 22 21 21 20 20 19 19 18 17 17 16 15 14 14 13 13 13 13 12 12 12 12 12 11 11 11 12 12 11 11 12 12 12 13 12 13 13
9 13 18 21 21 20 21 22 21 21 22 22 22 21 21 20 20 19 18 16 16 16 15 15 14 14 13 14 14 14 14 13 12 11 11 11 10 10 11 11 11 11 11 11 11 12 12 12 12
10 12 19 21 20 21 22 22 22 21 22 23 23 22 21 20 19 18 17 16 15 15 15 14 14 13 14 14 13 13 13 12 12 11 10 10 10 10 10 10 10 10 10 10 10 10 12 12 11
13 17 20 18 19 22 23 22 21 21 22 23 23 23 22 20 19 18 17 16 15 15 14 14 14 13 13 13 12 12 11 11 11 11 11 10 10 10 11 10 10 10 10 10 9 9 10 11 11
16 20 21 20 19 19 23 20 21 21 21 21 22 22 22 21 20 19 18 17 15 15 14 14 13 13 12 12 12 12 13 13 13 12 11 10 10 9 10 10 10 10 9 9 9 9 9 9 11
15 19 19 21 21 22 21 21 23 22 20 20 21 21 22 21 20 19 18 17 16 15 14 14 13 12 12 11 12 12 12 12 12 11 11 10 10 9 9 9 9 9 9 9 9 8 8 9 9
18 19 19 21 21 19 21 23 24 22 23 22 22 22 22 21 20 20 19 17 16 15 13 13 13 12 12 11 11 11 12 12 11 11 11 11 11 10 9 9 9 9 9 8 8 8 8 8 8
17 18 15 16 15 18 21 20 24 24 24 24 23 23 22 22 20 19 18 17 16 14 13 13 13 13 12 12 11 11 11 11 11 11 12 12 12 11 10 10 9 9 9 8 8 8 8 8 8
18 18 17 16 17 18 18 20 22 21 21 20 24 23 22 20 20 18 17 16 15 14 13 13 13 14 13 12 12 11 11 10 11 11 11 11 11 11 10 10 9 9 9 8 8 8 8 7 7
18 17 17 17 19 20 20 22 19 18 17 18 19 20 19 19 18 17 16 15 14 14 13 13 13 13 13 12 12 12 11 11 11 11 11 10 10 10 9 9 9 9 8 8 8 8 7 7 7
18 18 16 17 18 20 20 21 22 18 18 18 17 18 18 18 17 16 15 15 14 13 13 13 13 13 12 12 12 12 12 12 11 11 11 11 11 10 10 9 9 9 9 8 8 8 7 7 7
18 18 18 19 19 21 21 22 21 21 20 18 18 18 17 17 16 16 15 14 13 13 13 13 13 12 12 12 12 12 12 11 11 11 11 11 10 10 10 10 9 9 9 9 9 8 8 8 7
16 18 19 20 20 20 21 21 19 19 20 19 18 18 17 17 16 15 14 14 14 14 13 13 12 12 11 11 12 11 11 11 11 11 10 10 10 10 9 9 9 9 9 9 9 9 9 8 8

GFSSGP_925_temp_156.txt.gz
Temp
19 20 22 23 21 22 23 25 28 30 31 32 31 32 30 25 27 24 22 23 22 21 20 19 19 19 19 19 19 19 19 19 19 19 19 19 19 18 18 18 18 18 18 18 18 18 18 18 18
18 21 22 21 21 22 24 27 28 30 32 29 31 30 30 23 22 21 21 21 21 20 19 19 19 19 19 18 18 18 18 18 18 18 18 18 18 18 18 18 18 18 18 18 18 18 18 18 18
18 21 20 20 21 22 25 27 29 31 28 29 28 27 27 22 21 20 20 21 20 19 19 18 18 18 18 18 18 18 18 18 18 18 18 18 17 17 17 17 17 17 17 17 18 18 18 18 18
20 20 20 20 22 24 25 28 31 28 29 29 27 24 22 23 22 20 19 20 19 18 18 18 18 18 18 18 18 18 18 18 18 18 18 17 16 16 16 17 17 17 17 17 17 17 17 17 17
19 19 19 20 21 24 27 29 31 29 27 28 27 23 20 19 19 19 19 19 19 18 17 17 18 18 18 17 17 17 18 18 18 18 18 18 17 16 17 16 16 16 16 16 16 17 17 17 17
17 19 19 19 22 24 26 28 29 29 27 27 28 22 20 18 18 18 20 20 19 18 17 16 17 18 18 17 17 18 18 18 18 18 17 17 17 17 17 17 16 16 16 16 16 16 17 17 17
17 17 18 20 22 23 26 28 27 28 28 27 28 22 19 18 18 19 19 19 18 17 17 16 17 17 18 18 18 17 17 17 17 17 17 17 16 16 16 16 16 16 16 16 16 16 17 17 17
18 17 17 19 21 22 26 28 28 28 28 28 27 22 18 18 18 19 19 18 18 18 17 17 17 17 17 17 17 17 17 16 16 16 16 16 16 16 15 15 15 16 16 16 16 16 16 17 17
17 16 16 18 20 23 25 26 28 30 28 28 25 21 22 17 17 18 18 17 17 17 17 17 17 17 16 17 16 16 16 16 15 15 16 16 16 16 15 15 15 15 16 16 16 16 16 17 17
15 15 16 20 21 23 25 25 26 26 26 25 21 19 17 17 17 17 17 17 17 17 16 16 17 16 16 16 16 16 16 15 15 15 15 16 15 15 15 15 15 15 16 16 16 16 16 16 16
16 15 18 20 21 23 22 23 23 24 24 23 21 17 16 17 17 17 17 17 17 17 16 16 16 16 16 16 16 16 16 16 15 15 15 15 15 15 15 15 15 15 15 15 16 16 16 16 16
14 16 18 19 20 21 21 22 22 24 24 25 22 18 17 17 18 18 18 18 17 16 16 15 16 16 16 16 16 16 16 15 15 14 14 14 14 14 15 15 15 15 15 15 15 15 16 16 16
15 15 17 19 19 20 21 20 20 21 23 23 22 19 18 18 19 18 18 18 16 16 15 15 15 15 16 16 16 16 16 15 15 14 14 14 14 14 14 14 14 14 14 14 14 14 15 15 15
16 16 16 16 17 20 20 20 20 22 21 23 21 19 19 19 19 19 18 17 16 15 15 15 15 15 15 15 15 15 15 14 14 13 13 13 13 13 13 14 13 13 13 14 14 14 14 14 14
14 14 14 15 16 18 20 19 19 21 22 21 20 20 19 20 20 19 18 17 16 15 15 14 14 14 14 14 14 14 14 14 14 13 13 13 13 13 13 13 13 13 13 13 14 14 14 14 13
13 13 12 15 15 15 18 17 20 21 21 20 20 20 20 20 20 19 19 18 16 16 15 14 14 14 14 14 14 13 13 13 13 13 13 12 12 12 13 12 12 12 12 13 13 13 14 13 12
10 10 12 13 15 14 16 18 20 20 20 19 20 20 20 19 19 19 19 18 17 16 15 15 14 14 14 13 13 13 13 13 12 12 12 12 12 12 12 12 12 12 12 12 13 13 13 13 12
11 11 13 13 15 15 14 18 20 20 20 20 19 19 19 19 18 19 19 18 17 16 15 15 14 14 14 13 13 13 13 12 12 12 12 12 12 12 12 11 12 12 12 12 12 12 12 12 12
12 12 12 13 15 13 14 19 19 19 19 20 19 19 19 18 18 19 18 18 17 16 15 15 14 14 13 13 13 13 13 13 12 12 11 11 11 11 11 11 11 11 11 11 11 11 12 12 12
11 11 11 13 14 13 16 18 21 19 19 20 20 18 18 18 17 17 17 16 16 16 15 15 14 14 14 14 14 14 13 13 12 11 11 11 11 11 11 11 11 11 11 11 11 11 11 12 11
10 10 11 12 14 15 18 18 20 19 20 20 20 19 18 17 17 16 15 16 15 15 15 14 14 14 14 13 13 13 13 12 12 11 11 11 11 11 11 11 10 10 11 10 10 10 10 10 11
10 12 12 12 15 14 18 14 17 18 19 20 20 19 18 17 17 16 15 15 15 15 14 14 14 13 13 13 13 12 13 13 13 12 11 11 11 10 10 10 10 10 10 10 10 10 10 9 10
11 15 15 14 17 16 17 15 18 18 18 19 18 19 18 17 16 16 15 15 15 15 14 14 14 13 13 13 13 12 12 12 12 11 11 11 10 10 10 10 10 10 10 10 10 10 9 9 9
13 15 14 14 16 14 17 18 17 18 19 18 18 18 18 17 16 16 16 16 15 15 14 14 13 13 13 13 13 12 12 12 12 11 11 11 11 11 10 10 10 9 9 9 9 9 9 9 9
13 13 12 12 11 13 17 18 19 20 20 19 19 18 17 16 15 15 14 15 15 14 14 13 13 12 12 12 12 12 12 11 11 11 11 11 11 11 11 10 10 9 9 9 9 9 9 9 8
14 15 12 13 13 13 16 16 17 17 18 21 20 19 17 16 16 14 13 15 15 14 13 13 13 12 12 12 12 11 11 11 11 11 11 11 11 11 11 10 10 9 9 9 8 8 8 8 8
17 13 15 14 15 13 13 17 18 17 16 18 19 18 16 15 14 13 13 15 14 13 13 13 13 13 13 12 12 12 11 11 11 11 11 11 11 10 10 10 9 9 9 9 8 8 8 8 8
16 15 14 13 13 15 13 18 13 15 15 17 15 15 14 14 13 12 12 14 14 13 13 13 13 13 13 13 12 12 12 12 11 11 11 11 11 10 10 10 9 9 9 9 9 8 8 8 8
16 16 16 15 15 13 15 16 17 15 15 15 15 14 13 13 12 12 11 13 13 13 13 13 13 13 12 12 12 12 12 12 11 11 11 11 10 10 10 10 9 9 9 9 9 9 9 8 8
15 16 16 14 15 14 16 15 17 17 15 15 15 15 13 13 12 11 11 12 13 13 13 13 12 12 12 12 12 11 11 11 11 11 11 10 10 9 9 9 9 9 9 9 9 8 8 8 8

GFSSGP_925_temp_159.txt.gz
Temp
20 20 20 20 18 16 19 22 24 25 29 29 29 27 24 20 24 23 21 22 22 20 19 19 20 19 19 19 19 19 19 19 18 18 18 18 18 18 18 18 18 18 18 18 18 18 18 18 18
20 20 21 16 17 17 18 22 25 25 28 28 25 26 23 20 20 19 20 20 21 20 19 19 19 19 18 18 18 19 18 18 18 18 18 17 17 17 18 18 18 18 18 18 18 18 18 18 18
19 19 16 16 15 18 20 24 23 25 26 28 25 22 22 19 19 18 20 20 20 20 19 19 19 19 18 18 18 18 18 18 18 18 18 17 17 16 16 18 18 17 17 17 17 17 17 17 17
18 18 15 16 17 19 22 23 25 26 27 27 23 20 20 21 20 19 19 21 21 20 19 18 18 17 18 18 18 18 18 18 18 18 18 17 17 17 17 17 17 17 17 17 17 17 17 17 17
19 14 15 15 17 19 20 23 24 26 25 25 25 20 19 18 19 19 19 20 20 18 18 18 17 17 18 18 18 18 18 18 18 18 18 17 16 16 16 16 16 16 16 16 16 16 17 17 17
15 14 14 14 16 19 21 21 25 26 25 26 21 18 17 18 19 19 18 19 19 18 18 17 16 17 17 18 18 18 18 18 18 18 17 17 17 15 15 16 16 15 15 15 16 16 16 17 17
14 13 13 15 16 18 21 23 24 24 24 25 20 18 17 17 19 19 19 18 18 18 17 16 16 17 17 18 18 18 17 17 17 17 17 16 16 15 15 15 16 16 16 16 16 16 16 16 17
14 14 15 14 16 16 20 22 25 24 24 25 20 17 17 17 19 18 18 18 17 18 17 17 17 18 18 17 17 17 16 16 16 16 16 16 15 15 15 16 16 16 16 16 16 16 16 16 16
15 13 14 14 16 18 20 20 23 24 25 21 18 19 19 19 17 18 17 17 17 17 17 17 17 17 17 17 16 16 16 15 15 16 16 15 15 15 15 15 15 15 15 16 16 16 16 16 16
13 12 14 16 16 17 19 20 19 22 23 18 16 17 18 17 17 17 16 16 17 17 17 17 16 16 16 16 16 16 15 15 15 15 15 15 15 15 15 15 15 15 15 15 16 16 16 16 16
13 13 15 16 17 18 18 19 19 20 20 20 16 16 17 17 17 16 15 16 16 17 16 17 17 16 16 16 16 16 15 15 15 15 15 15 15 15 15 15 15 15 15 15 15 15 15 16 15
13 15 16 16 17 17 17 18 18 19 19 19 16 16 17 17 17 17 16 16 16 16 16 16 16 16 16 16 16 16 15 15 14 14 14 14 14 14 14 14 14 14 14 15 15 15 15 15 15
12 14 15 16 16 16 17 17 18 18 19 19 17 16 16 17 17 17 16 16 16 16 16 16 16 16 16 16 16 15 15 14 14 14 14 14 14 14 14 14 14 14 14 14 14 14 14 14 14
13 13 14 15 15 15 16 16 17 19 19 18 17 16 16 17 17 17 16 15 16 15 15 15 15 15 15 15 15 15 15 14 14 14 13 13 13 13 13 13 13 14 14 14 14 14 14 14 14
12 12 13 13 14 14 16 16 17 18 19 18 17 16 16 17 18 17 15 15 16 15 15 15 15 15 15 15 15 14 14 14 13 13 13 13 13 13 13 13 13 13 13 13 14 14 13 13 13
12 11 11 14 14 15 14 14 16 17 18 17 17 17 17 17 18 16 16 16 16 15 15 15 15 14 14 14 14 14 14 13 13 13 13 13 13 12 12 12 13 13 13 13 13 13 13 12 12
10 7 10 12 14 14 13 13 16 17 18 16 16 17 17 17 16 16 16 16 15 15 14 14 14 14 14 14 14 14 13 13 13 12 12 12 12 12 12 12 12 12 12 13 12 13 12 12 12
9 9 10 11 14 14 14 14 15 15 17 17 15 16 17 17 16 16 16 16 16 15 15 14 14 14 14 13 13 13 13 13 12 12 12 12 12 12 12 12 12 12 12 12 12 12 12 12 12
10 10 9 12 15 14 13 13 15 16 16 16 16 16 17 17 16 16 16 16 15 15 15 14 14 14 14 13 13 13 13 12 12 12 12 12 12 12 11 11 11 12 11 11 11 12 12 12 12
10 9 9 11 13 13 12 13 14 15 16 16 17 16 15 15 15 15 15 15 15 15 15 14 14 14 14 14 14 13 13 12 12 12 12 12 11 11 11 11 11 11 11 11 11 11 11 11 11
11 11 11 11 13 13 13 12 13 15 18 16 17 17 17 16 16 14 14 14 15 15 14 14 14 14 14 14 13 13 13 12 12 11 11 11 11 11 11 11 11 11 11 11 10 10 10 10 11
10 12 11 11 11 11 13 12 14 15 18 16 17 17 16 15 15 14 14 13 14 15 15 14 14 14 14 14 14 13 13 12 12 12 11 11 11 11 11 11 11 11 11 10 10 10 10 10 10
10 11 9 11 11 12 12 12 16 16 16 17 17 16 16 15 14 14 14 14 14 15 14 14 14 14 13 13 13 13 12 12 12 12 11 11 11 11 10 11 10 10 10 10 10 10 10 9 9
11 11 12 12 12 12 13 13 13 15 17 16 17 16 16 15 14 14 14 14 14 14 14 14 14 13 13 13 13 12 12 12 12 12 11 11 11 11 11 10 10 10 10 10 9 9 9 9 9
11 11 12 13 11 11 14 14 15 17 18 17 17 16 16 15 14 13 13 13 13 13 14 14 13 13 13 13 12 12 12 12 12 12 11 11 11 11 11 10 10 10 10 9 9 9 9 9 9
12 12 12 12 12 12 14 13 17 16 17 19 18 16 16 15 14 14 13 13 13 13 13 13 13 13 12 12 12 12 12 12 12 11 11 11 11 11 10 10 10 10 9 9 9 8 8 8 8
15 12 14 13 13 12 12 16 16 15 16 16 16 15 15 14 14 12 12 12 12 12 13 13 13 13 12 12 12 12 12 12 11 11 11 11 11 10 10 10 10 9 9 9 9 8 9 8 8
15 14 13 11 13 14 13 15 13 15 15 16 15 14 14 12 11 11 11 12 12 13 13 13 13 13 12 12 12 12 12 11 11 11 11 11 10 10 10 10 9 9 9 9 9 9 8 8 8
14 13 13 12 11 13 14 15 16 15 13 16 15 15 13 12 11 10 9 12 13 13 13 12 12 12 12 12 12 12 12 11 11 11 10 10 10 10 10 9 9 9 9 9 9 8 8 8 8
14 15 14 13 12 11 12 14 13 14 14 13 13 12 11 11 10 9 9 10 11 12 12 12 12 12 12 12 12 11 11 11 11 10 10 10 10 10 9 9 9 9 9 8 8 8 8 8 7